When you browse on this site, cookies collect data to enhance your experience and personalize the content and advertising you see.
Visit our Privacy Policy to learn more. By continuing to use the site, you agree to this use of cookies and data.
EN

Hourly Weather Albany

Today, 12 August, Wednesday

Time Temperature Precipitation Wind Pressure Humidity
00:00 +11°C° 0.1 mm 6 mps 754 mmHg 87%
01:00 +10°C° 0.1 mm 6 mps 754 mmHg 86%
02:00 +11°C° 0 mm 6 mps 753 mmHg 86%
03:00 +10°C° 0.2 mm 6 mps 754 mmHg 88%
04:00 +10°C° 0.2 mm 6 mps 754 mmHg 89%
05:00 +10°C° 0.2 mm 5 mps 754 mmHg 90%
06:00 +12°C° 0.3 mm 5 mps 754 mmHg 90%
07:00 +12°C° 0.3 mm 5 mps 755 mmHg 90%
08:00 +12°C° 0.3 mm 5 mps 755 mmHg 90%
09:00 +13°C° 0.2 mm 5 mps 755 mmHg 88%
10:00 +13°C° 0.2 mm 6 mps 755 mmHg 85%
11:00 +14°C° 0.2 mm 6 mps 756 mmHg 82%
12:00 +14°C° 0.3 mm 6 mps 755 mmHg 82%
13:00 +14°C° 0.3 mm 6 mps 755 mmHg 82%
14:00 +14°C° 0.3 mm 6 mps 755 mmHg 82%
15:00 +13°C° 0.3 mm 6 mps 755 mmHg 84%
16:00 +13°C° 0.3 mm 6 mps 756 mmHg 86%
17:00 +12°C° 0.3 mm 5 mps 756 mmHg 87%
18:00 +12°C° 0.1 mm 5 mps 756 mmHg 88%
19:00 +10°C° 0.1 mm 5 mps 757 mmHg 89%
20:00 +11°C° 0.1 mm 4 mps 757 mmHg 90%
21:00 +11°C° 0.2 mm 4 mps 758 mmHg 90%
22:00 +10°C° 0.2 mm 4 mps 758 mmHg 91%
23:00 +10°C° 0.2 mm 3 mps 758 mmHg 92%

Tomorrow, 13 August, Thursday

Time Temperature Precipitation Wind Pressure Humidity
00:00 +10°C° 0.3 mm 3 mps 758 mmHg 92%
01:00 +10°C° 0.3 mm 3 mps 758 mmHg 92%
02:00 +10°C° 0.3 mm 3 mps 757 mmHg 92%
03:00 +10°C° 0.4 mm 3 mps 757 mmHg 92%
04:00 +10°C° 0.4 mm 3 mps 758 mmHg 92%
05:00 +10°C° 0.4 mm 3 mps 758 mmHg 92%
06:00 +10°C° 0.5 mm 3 mps 758 mmHg 92%
07:00 +10°C° 0.5 mm 3 mps 758 mmHg 92%
08:00 +10°C° 0.5 mm 3 mps 758 mmHg 92%
09:00 +11°C° 0.4 mm 3 mps 758 mmHg 91%
10:00 +11°C° 0.4 mm 3 mps 758 mmHg 91%
11:00 +11°C° 0.4 mm 3 mps 759 mmHg 90%
12:00 +11°C° 0.4 mm 3 mps 758 mmHg 89%
13:00 +12°C° 0.4 mm 3 mps 758 mmHg 88%
14:00 +12°C° 0.4 mm 3 mps 757 mmHg 87%
15:00 +12°C° 0.5 mm 3 mps 757 mmHg 88%
16:00 +12°C° 0.5 mm 2 mps 758 mmHg 88%
17:00 +12°C° 0.5 mm 2 mps 758 mmHg 89%
18:00 +12°C° 0.5 mm 2 mps 758 mmHg 90%
19:00 +10°C° 0.5 mm 2 mps 759 mmHg 90%
20:00 +10°C° 0.5 mm 2 mps 759 mmHg 91%
21:00 +11°C° 0.1 mm 1 mps 759 mmHg 91%
22:00 +10°C° 0.1 mm 1 mps 759 mmHg 90%
23:00 +10°C° 0.1 mm 1 mps 759 mmHg 90%

Day after tomorrow, 14 August, Friday

Time Temperature Precipitation Wind Pressure Humidity
00:00 +10°C° 0 mm 1 mps 758 mmHg 91%
01:00 +9°C° 0 mm 1 mps 758 mmHg 92%
02:00 +7°C° 0 mm 2 mps 758 mmHg 94%
03:00 +7°C° 0 mm 2 mps 758 mmHg 94%
04:00 +6°C° 0 mm 2 mps 758 mmHg 93%
05:00 +6°C° 0 mm 2 mps 758 mmHg 93%
06:00 +5°C° 0 mm 3 mps 758 mmHg 92%
07:00 +7°C° 0 mm 3 mps 758 mmHg 91%
08:00 +7°C° 0 mm 3 mps 758 mmHg 91%
09:00 +8°C° 0 mm 3 mps 758 mmHg 85%
10:00 +10°C° 0 mm 3 mps 758 mmHg 80%
11:00 +12°C° 0 mm 3 mps 758 mmHg 74%
12:00 +12°C° 0 mm 3 mps 758 mmHg 71%
13:00 +12°C° 0 mm 3 mps 757 mmHg 67%
14:00 +13°C° 0 mm 3 mps 757 mmHg 64%
15:00 +12°C° 0 mm 3 mps 757 mmHg 67%
16:00 +12°C° 0 mm 3 mps 757 mmHg 70%
17:00 +13°C° 0 mm 2 mps 757 mmHg 73%
18:00 +10°C° 0 mm 2 mps 757 mmHg 74%
19:00 +9°C° 0 mm 2 mps 757 mmHg 76%
20:00 +8°C° 0 mm 2 mps 757 mmHg 78%
21:00 +8°C° 0 mm 2 mps 757 mmHg 81%
22:00 +7°C° 0 mm 3 mps 756 mmHg 85%
23:00 +7°C° 0 mm 3 mps 756 mmHg 88%

15 August, Saturday

Time Temperature Precipitation Wind Pressure Humidity
00:00 +7°C° 0 mm 3 mps 756 mmHg 89%
01:00 +7°C° 0 mm 3 mps 755 mmHg 91%
02:00 +7°C° 0 mm 3 mps 755 mmHg 93%
03:00 +7°C° 0 mm 4 mps 754 mmHg 87%
04:00 +8°C° 0 mm 5 mps 754 mmHg 82%
05:00 +9°C° 0 mm 5 mps 754 mmHg 77%
06:00 +9°C° 0 mm 5 mps 753 mmHg 77%
07:00 +9°C° 0 mm 6 mps 753 mmHg 76%
08:00 +9°C° 0 mm 6 mps 753 mmHg 76%
09:00 +11°C° 0 mm 6 mps 753 mmHg 72%
10:00 +13°C° 0 mm 6 mps 752 mmHg 69%
11:00 +15°C° 0 mm 7 mps 752 mmHg 66%
12:00 +15°C° 0 mm 7 mps 751 mmHg 65%
13:00 +15°C° 0 mm 6 mps 750 mmHg 65%
14:00 +15°C° 0 mm 6 mps 749 mmHg 65%
15:00 +14°C° 1.4 mm 6 mps 748 mmHg 74%
16:00 +13°C° 1.4 mm 5 mps 748 mmHg 84%
17:00 +12°C° 1.4 mm 4 mps 748 mmHg 93%
18:00 +12°C° 0.1 mm 5 mps 748 mmHg 92%
19:00 +11°C° 0.1 mm 7 mps 747 mmHg 92%
20:00 +11°C° 0.1 mm 8 mps 747 mmHg 91%
21:00 +11°C° 0 mm 8 mps 746 mmHg 90%
22:00 +10°C° 0 mm 8 mps 745 mmHg 88%
23:00 +9°C° 0 mm 8 mps 744 mmHg 87%

16 August, Sunday

Time Temperature Precipitation Wind Pressure Humidity
00:00 +9°C° 0 mm 8 mps 744 mmHg 84%
01:00 +8°C° 0 mm 9 mps 743 mmHg 81%
02:00 +8°C° 0 mm 9 mps 742 mmHg 79%
03:00 +8°C° 0.1 mm 9 mps 742 mmHg 80%
04:00 +8°C° 0.1 mm 9 mps 742 mmHg 82%
05:00 +8°C° 0.1 mm 9 mps 742 mmHg 83%
06:00 +8°C° 1.4 mm 11 mps 743 mmHg 85%
07:00 +8°C° 1.4 mm 13 mps 744 mmHg 87%
08:00 +8°C° 1.4 mm 14 mps 745 mmHg 89%
09:00 +8°C° 0.6 mm 13 mps 747 mmHg 88%
10:00 +7°C° 0.6 mm 12 mps 748 mmHg 87%
11:00 +7°C° 0.6 mm 11 mps 750 mmHg 86%
12:00 +7°C° 0.2 mm 11 mps 750 mmHg 82%
13:00 +8°C° 0.2 mm 11 mps 749 mmHg 78%
14:00 +9°C° 0.2 mm 11 mps 749 mmHg 73%
15:00 +9°C° 0.5 mm 11 mps 749 mmHg 77%
16:00 +9°C° 0.5 mm 10 mps 750 mmHg 80%
17:00 +8°C° 0.5 mm 10 mps 750 mmHg 84%
18:00 +8°C° 0.2 mm 10 mps 750 mmHg 83%
19:00 +7°C° 0.2 mm 10 mps 751 mmHg 81%
20:00 +6°C° 0.2 mm 9 mps 751 mmHg 80%
21:00 +6°C° 0.4 mm 10 mps 752 mmHg 83%
22:00 +6°C° 0.4 mm 10 mps 752 mmHg 85%
23:00 +5°C° 0.4 mm 10 mps 752 mmHg 87%

17 August, Monday

Time Temperature Precipitation Wind Pressure Humidity
00:00 +5°C° 0.2 mm 10 mps 752 mmHg 84%
01:00 +5°C° 0.2 mm 10 mps 752 mmHg 82%
02:00 +5°C° 0.2 mm 9 mps 752 mmHg 80%
03:00 +5°C° 0.2 mm 9 mps 753 mmHg 79%
04:00 +6°C° 0.2 mm 9 mps 753 mmHg 79%
05:00 +6°C° 0.2 mm 9 mps 753 mmHg 79%
06:00 +6°C° 0.2 mm 9 mps 754 mmHg 78%
07:00 +6°C° 0.2 mm 9 mps 754 mmHg 77%
08:00 +6°C° 0.2 mm 9 mps 755 mmHg 77%
09:00 +7°C° 0.2 mm 10 mps 755 mmHg 71%
10:00 +8°C° 0.2 mm 11 mps 755 mmHg 66%
11:00 +9°C° 0.2 mm 11 mps 756 mmHg 61%
12:00 +9°C° 0.3 mm 11 mps 756 mmHg 64%
13:00 +8°C° 0.3 mm 11 mps 756 mmHg 68%
14:00 +8°C° 0.3 mm 11 mps 756 mmHg 72%
15:00 +8°C° 0.2 mm 10 mps 756 mmHg 73%
16:00 +7°C° 0.2 mm 10 mps 756 mmHg 74%
17:00 +7°C° 0.2 mm 9 mps 756 mmHg 75%
18:00 +7°C° 0.1 mm 9 mps 757 mmHg 76%
19:00 +7°C° 0.1 mm 9 mps 757 mmHg 77%
20:00 +7°C° 0.1 mm 8 mps 758 mmHg 77%
21:00 +7°C° 0.1 mm 8 mps 758 mmHg 77%
22:00 +7°C° 0.1 mm 8 mps 758 mmHg 77%
23:00 +7°C° 0.1 mm 8 mps 758 mmHg 77%
Show more